Погода в Маразе

Азербайджан     40°31′55″N   48°55′33″E
темп.,
°C
ветер,
м/с
пор.,
м/с
влажн.,
%
обл.,
%
осадки,
мм/ч
давл.,
гПа
погр.,
м
15 августа, пн
пн1501:00+25ссв22250 0.0 100811
04:00+24св11260 0.0 100811
07:00+25с22250 0.0 100912
10:00+30ююв35180 0.0 1009896
13:00+33ююв57170 0.0 10091573
16:00+34ююв78150 0.0 10081702
19:00+30юв35180 0.0 1008673
22:00+27ссв11230 0.0 101012
16 августа, вт
вт1601:00+26с22220 0.0 101012
04:00+24ссз11230 0.0 101011
07:00+26ссз22210 0.0 101118
10:00+32ююв48150 0.0 10111227
13:00+35ююв67140 0.0 10101717
16:00+34юв66150 0.0 10101382
19:00+31юв36150 0.0 1010815
22:00+28ссв11200 0.0 101112
17 августа, ср
ср1701:00+27с22200 0.0 101212
04:00+25с22210 0.0 101211
07:00+26с22210 0.0 101312
10:00+31юв57180 0.0 1013950
13:00+33юв78180 0.0 10121256
16:00+32юв67170 0.0 10121179
19:00+29вюв37180 0.0 1012672
22:00+27ссв11210 0.0 101313
18 августа, чт
чт1801:00+25ссв11210 0.0 101211
04:00+24с22225 0.0 101211
07:00+25ссв222163 0.0 101215
10:00+29юв332082 0.0 1012770
13:00+32ююв44173 0.0 10111373
16:00+32юв53180 0.0 10091221
19:00+28вюв45230 0.0 1010558
22:00+25св11270 0.0 101216
19 августа, пт
пт1901:00+24с22180 0.0 101114
04:00+22ссв11160 0.0 101011
07:00+23с11150 0.0 101111
10:00+29ююв23110 0.0 1011882
13:00+32ююв44110 0.0 10111495
16:00+32юв65130 0.0 10101523
19:00+28вюв67190 0.0 1011668
22:00+26св34220 0.0 101383